PGT34TN LTFJ-LTBS

Flight info

Callsign PGT34TN
Flight time 1h 1m
Altitude 32000
Route ROXUK UT409 NUMTI UT241 DEN/N0419F310 UW87 LAVTA W87 ATSAL
Aircraft A21N/M-SDE2E3FGHIRWXY/LB1

Departure

Time 2026-04-20 12:37
Airport Istanbul Sabiha Gökçen International Airport (LTFJ)

Arrival

Time 2026-04-20 13:38
Airport Dalaman International Airport (LTBS)
Time Latitude Longitude Altitude Speed Heading
2026-04-20 11:52 40.90539 29.31386 323 ft 0 kts 334°
2026-04-20 12:24 40.90534 29.31389 326 ft 4 kts 335°
2026-04-20 12:24 40.90509 29.31402 322 ft 4 kts 345°
2026-04-20 12:25 40.90482 29.31409 322 ft 4 kts 356°
2026-04-20 12:25 40.90456 29.31407 324 ft 4 kts 14°
2026-04-20 12:25 40.90434 29.31393 323 ft 4 kts 53°
2026-04-20 12:25 40.90429 29.31381 322 ft 1 kts 64°
2026-04-20 12:26 40.90428 29.31381 322 ft 0 kts 64°
2026-04-20 12:29 40.90433 29.31393 323 ft 3 kts 70°
2026-04-20 12:29 40.90421 29.31428 326 ft 6 kts 139°
2026-04-20 12:30 40.90378 29.31459 325 ft 9 kts 154°
2026-04-20 12:30 40.90315 29.31495 326 ft 11 kts 169°
2026-04-20 12:30 40.90255 29.31437 326 ft 13 kts 244°
2026-04-20 12:30 40.90213 29.31322 325 ft 15 kts 244°
2026-04-20 12:31 40.90166 29.31194 323 ft 16 kts 244°
2026-04-20 12:31 40.90113 29.31051 326 ft 18 kts 244°
2026-04-20 12:31 40.90056 29.30893 326 ft 20 kts 245°
2026-04-20 12:31 40.89996 29.30730 326 ft 20 kts 244°
2026-04-20 12:32 40.89933 29.30560 325 ft 21 kts 244°
2026-04-20 12:32 40.89867 29.30381 326 ft 23 kts 244°
2026-04-20 12:32 40.89799 29.30196 326 ft 17 kts 244°
2026-04-20 12:32 40.89745 29.30047 324 ft 19 kts 244°
2026-04-20 12:33 40.89686 29.29886 324 ft 20 kts 244°
2026-04-20 12:33 40.89622 29.29714 326 ft 22 kts 244°
2026-04-20 12:33 40.89572 29.29577 326 ft 14 kts 244°
2026-04-20 12:33 40.89552 29.29523 326 ft 7 kts 244°
2026-04-20 12:34 40.89527 29.29455 325 ft 9 kts 243°
2026-04-20 12:34 40.89495 29.29370 326 ft 11 kts 244°
2026-04-20 12:34 40.89469 29.29299 326 ft 5 kts 244°
2026-04-20 12:34 40.89441 29.29263 326 ft 7 kts 208°
2026-04-20 12:35 40.89408 29.29253 326 ft 8 kts 179°
2026-04-20 12:35 40.89348 29.29278 326 ft 10 kts 156°
2026-04-20 12:35 40.89296 29.29312 325 ft 5 kts 153°
2026-04-20 12:35 40.89283 29.29359 327 ft 7 kts 71°
2026-04-20 12:36 40.89290 29.29381 325 ft 0 kts 64°
2026-04-20 12:36 40.89341 29.29520 326 ft 49 kts 64°
2026-04-20 12:36 40.89598 29.30219 325 ft 117 kts 64°
2026-04-20 12:37 40.90029 29.31397 325 ft 168 kts 64°
2026-04-20 12:37 40.90558 29.32787 837 ft 165 kts 62°
2026-04-20 12:37 40.91067 29.34169 1415 ft 168 kts 67°
2026-04-20 12:37 40.91513 29.35607 1943 ft 178 kts 63°
2026-04-20 12:38 40.92116 29.37155 2427 ft 199 kts 63°
2026-04-20 12:38 40.92714 29.38896 3063 ft 218 kts 72°
2026-04-20 12:38 40.92892 29.40976 3548 ft 243 kts 97°
2026-04-20 12:38 40.92280 29.43102 4266 ft 258 kts 125°
2026-04-20 12:39 40.89193 29.45735 5947 ft 275 kts 155°
2026-04-20 12:39 40.87423 29.46779 6583 ft 280 kts 155°
2026-04-20 12:39 40.85644 29.47856 6933 ft 284 kts 155°
2026-04-20 12:40 40.83853 29.48961 7000 ft 283 kts 154°
2026-04-20 12:40 40.82077 29.50071 7284 ft 282 kts 154°
2026-04-20 12:40 40.80287 29.51197 8127 ft 287 kts 154°
2026-04-20 12:40 40.78472 29.52344 9091 ft 290 kts 154°
2026-04-20 12:41 40.76741 29.53749 9989 ft 295 kts 139°
2026-04-20 12:41 40.75334 29.55819 10500 ft 314 kts 126°
2026-04-20 12:41 40.73992 29.58229 10901 ft 335 kts 125°
2026-04-20 12:41 40.72597 29.60748 11572 ft 345 kts 125°
2026-04-20 12:42 40.71158 29.63309 12404 ft 350 kts 126°
2026-04-20 12:42 40.69646 29.65858 13246 ft 355 kts 132°
2026-04-20 12:42 40.67701 29.67875 14022 ft 361 kts 152°
2026-04-20 12:42 40.65322 29.68915 14759 ft 363 kts 173°
2026-04-20 12:43 40.62801 29.69010 15519 ft 364 kts 183°
2026-04-20 12:43 40.60251 29.68886 16288 ft 368 kts 183°
2026-04-20 12:43 40.57672 29.68790 17022 ft 373 kts 182°
2026-04-20 12:43 40.55061 29.68738 17777 ft 377 kts 182°
2026-04-20 12:44 40.52463 29.68712 18478 ft 380 kts 181°
2026-04-20 12:44 40.49803 29.68699 19104 ft 384 kts 181°
2026-04-20 12:44 40.47119 29.68689 19741 ft 387 kts 181°
2026-04-20 12:44 40.44412 29.68683 20330 ft 391 kts 181°
2026-04-20 12:45 40.41676 29.68672 20962 ft 394 kts 182°
2026-04-20 12:45 40.38931 29.68667 21560 ft 397 kts 181°
2026-04-20 12:45 40.36146 29.68659 22161 ft 401 kts 182°
2026-04-20 12:45 40.33340 29.68651 22757 ft 405 kts 181°
2026-04-20 12:46 40.30509 29.68645 23342 ft 408 kts 182°
2026-04-20 12:46 40.27652 29.68636 23868 ft 411 kts 182°
2026-04-20 12:46 40.24778 29.68632 24371 ft 414 kts 182°
2026-04-20 12:46 40.21886 29.68623 24874 ft 417 kts 182°
2026-04-20 12:47 40.19019 29.68616 25364 ft 419 kts 182°
2026-04-20 12:47 40.16057 29.68772 25859 ft 423 kts 177°
2026-04-20 12:47 40.13151 29.69089 26322 ft 425 kts 177°
2026-04-20 12:47 40.10199 29.69431 26788 ft 428 kts 177°
2026-04-20 12:48 40.07222 29.69778 27246 ft 430 kts 177°
2026-04-20 12:48 40.04231 29.70122 27673 ft 433 kts 177°
2026-04-20 12:48 40.01216 29.70467 28089 ft 435 kts 177°
2026-04-20 12:48 39.98190 29.70812 28515 ft 438 kts 178°
2026-04-20 12:49 39.95148 29.71157 28927 ft 440 kts 178°
2026-04-20 12:49 39.92078 29.71413 29321 ft 441 kts 183°
2026-04-20 12:49 39.89038 29.70990 29707 ft 438 kts 196°
2026-04-20 12:49 39.86183 29.69691 30183 ft 432 kts 209°
2026-04-20 12:50 39.83587 29.67767 30661 ft 428 kts 214°
2026-04-20 12:50 39.81058 29.65732 31134 ft 426 kts 215°
2026-04-20 12:50 39.78540 29.63717 31590 ft 424 kts 214°
2026-04-20 12:50 39.76011 29.61722 31922 ft 424 kts 214°
2026-04-20 12:51 39.73489 29.59745 31998 ft 422 kts 214°
2026-04-20 12:51 39.68491 29.55837 31994 ft 422 kts 214°
2026-04-20 12:52 39.63475 29.51867 31986 ft 421 kts 217°
2026-04-20 12:52 39.58633 29.47611 31991 ft 420 kts 217°
2026-04-20 12:53 39.53796 29.43340 31986 ft 420 kts 217°
2026-04-20 12:53 39.48950 29.39078 31986 ft 421 kts 217°
2026-04-20 12:54 39.44103 29.34831 31988 ft 420 kts 217°
2026-04-20 12:54 39.39257 29.30581 31989 ft 420 kts 217°
2026-04-20 12:55 39.34450 29.26373 31978 ft 420 kts 217°
2026-04-20 12:55 39.29599 29.22140 31982 ft 421 kts 217°
2026-04-20 12:56 39.24754 29.17915 32000 ft 420 kts 217°
2026-04-20 12:56 39.19900 29.13684 31986 ft 420 kts 217°
2026-04-20 12:57 39.15076 29.09492 31986 ft 421 kts 217°
2026-04-20 12:57 39.10220 29.05281 31983 ft 421 kts 217°
2026-04-20 12:58 39.05361 29.01075 31994 ft 421 kts 217°
2026-04-20 12:58 39.00500 28.96874 31991 ft 421 kts 217°
2026-04-20 12:59 38.95624 28.92667 31988 ft 422 kts 217°
2026-04-20 12:59 38.90746 28.88465 31988 ft 422 kts 217°
2026-04-20 13:00 38.85868 28.84271 31983 ft 422 kts 217°
2026-04-20 13:00 38.81009 28.80101 31994 ft 422 kts 217°
2026-04-20 13:01 38.76125 28.75914 32000 ft 422 kts 217°
2026-04-20 13:01 38.71240 28.71734 32000 ft 422 kts 217°
2026-04-20 13:02 38.66353 28.67561 32005 ft 423 kts 217°
2026-04-20 13:02 38.61455 28.63394 31993 ft 423 kts 216°
2026-04-20 13:02 38.58836 28.61643 31997 ft 427 kts 204°
2026-04-20 13:03 38.55943 28.60722 32004 ft 434 kts 189°
2026-04-20 13:03 38.52903 28.60715 32007 ft 439 kts 178°
2026-04-20 13:03 38.49893 28.61084 31997 ft 440 kts 177°
2026-04-20 13:04 38.43804 28.61888 32006 ft 440 kts 177°
2026-04-20 13:04 38.37712 28.62627 32001 ft 438 kts 178°
2026-04-20 13:05 38.31636 28.63344 31999 ft 438 kts 178°
2026-04-20 13:05 38.25559 28.64060 31996 ft 439 kts 178°
2026-04-20 13:06 38.19483 28.64775 31640 ft 438 kts 178°
2026-04-20 13:06 38.16455 28.65132 31284 ft 436 kts 178°
2026-04-20 13:06 38.13479 28.65482 30922 ft 435 kts 178°
2026-04-20 13:06 38.10468 28.65836 30561 ft 433 kts 178°
2026-04-20 13:07 38.07472 28.66188 30179 ft 433 kts 178°
2026-04-20 13:07 38.04474 28.66539 29925 ft 430 kts 178°
2026-04-20 13:07 38.01496 28.66888 29845 ft 429 kts 178°
2026-04-20 13:08 37.95574 28.67582 29791 ft 419 kts 178°
2026-04-20 13:08 37.89885 28.68249 29597 ft 404 kts 178°
2026-04-20 13:08 37.87062 28.68577 28621 ft 410 kts 178°
2026-04-20 13:09 37.84188 28.68908 27559 ft 419 kts 178°
2026-04-20 13:09 37.81286 28.69246 26928 ft 417 kts 178°
2026-04-20 13:09 37.78405 28.69583 26455 ft 411 kts 178°
2026-04-20 13:09 37.75615 28.69909 26013 ft 405 kts 178°
2026-04-20 13:10 37.72835 28.70231 25542 ft 399 kts 178°
2026-04-20 13:10 37.70083 28.70466 25106 ft 393 kts 180°
2026-04-20 13:10 37.67369 28.70661 24643 ft 389 kts 180°
2026-04-20 13:10 37.64678 28.70848 24163 ft 386 kts 180°
2026-04-20 13:11 37.62008 28.71036 23697 ft 383 kts 180°
2026-04-20 13:11 37.59354 28.71225 23208 ft 381 kts 180°
2026-04-20 13:11 37.56716 28.71417 22724 ft 379 kts 180°
2026-04-20 13:11 37.54088 28.71606 22249 ft 377 kts 180°
2026-04-20 13:12 37.51475 28.71773 21778 ft 375 kts 182°
2026-04-20 13:12 37.48929 28.71387 21269 ft 366 kts 200°
2026-04-20 13:12 37.46561 28.70298 20842 ft 360 kts 206°
2026-04-20 13:12 37.44259 28.69089 20482 ft 353 kts 206°
2026-04-20 13:13 37.42016 28.67910 20125 ft 348 kts 206°
2026-04-20 13:13 37.39777 28.66757 19740 ft 346 kts 206°
2026-04-20 13:13 37.37550 28.65625 19334 ft 345 kts 205°
2026-04-20 13:13 37.35319 28.64498 18946 ft 345 kts 205°
2026-04-20 13:14 37.33091 28.63375 18562 ft 346 kts 205°
2026-04-20 13:14 37.30850 28.62248 18161 ft 346 kts 205°
2026-04-20 13:14 37.28640 28.61135 17740 ft 347 kts 205°
2026-04-20 13:14 37.26394 28.60006 17305 ft 348 kts 205°
2026-04-20 13:15 37.24131 28.58923 16888 ft 349 kts 200°
2026-04-20 13:15 37.21712 28.58529 16491 ft 355 kts 179°
2026-04-20 13:15 37.19281 28.59084 16140 ft 356 kts 168°
2026-04-20 13:15 37.16889 28.59880 15774 ft 355 kts 167°
2026-04-20 13:16 37.14541 28.60856 15401 ft 357 kts 155°
2026-04-20 13:16 37.12539 28.62683 15038 ft 357 kts 134°
2026-04-20 13:16 37.11210 28.65237 14792 ft 346 kts 111°
2026-04-20 13:16 37.10761 28.68128 14602 ft 332 kts 86°
2026-04-20 13:17 37.11253 28.70863 14439 ft 315 kts 62°
2026-04-20 13:17 37.12214 28.73295 14158 ft 310 kts 61°
2026-04-20 13:17 37.13029 28.75800 13759 ft 312 kts 69°
2026-04-20 13:17 37.13608 28.78417 13393 ft 310 kts 73°
2026-04-20 13:18 37.14056 28.80954 13056 ft 307 kts 76°
2026-04-20 13:18 37.14467 28.83579 12678 ft 305 kts 77°
2026-04-20 13:18 37.14847 28.86181 12296 ft 303 kts 77°
2026-04-20 13:18 37.15216 28.88771 11934 ft 300 kts 77°
2026-04-20 13:19 37.15572 28.91303 11595 ft 297 kts 77°
2026-04-20 13:19 37.15929 28.93866 11266 ft 293 kts 77°
2026-04-20 13:19 37.16265 28.96340 11033 ft 288 kts 80°
2026-04-20 13:19 37.16027 28.98769 10982 ft 278 kts 112°
2026-04-20 13:20 37.14923 29.00722 11003 ft 277 kts 137°
2026-04-20 13:20 37.13283 29.01974 11021 ft 277 kts 162°
2026-04-20 13:20 37.11395 29.02311 11034 ft 275 kts 187°
2026-04-20 13:20 37.10158 29.02012 11037 ft 273 kts 202°
2026-04-20 13:21 37.08528 29.00851 11073 ft 268 kts 224°
2026-04-20 13:21 37.07375 28.99071 11058 ft 263 kts 246°
2026-04-20 13:21 37.06852 28.96912 11046 ft 257 kts 269°
2026-04-20 13:21 37.07007 28.94719 11041 ft 252 kts 288°
2026-04-20 13:22 37.07587 28.92641 11050 ft 253 kts 292°
2026-04-20 13:22 37.08188 28.90570 11041 ft 252 kts 292°
2026-04-20 13:22 37.08845 28.88549 11037 ft 249 kts 300°
2026-04-20 13:22 37.09886 28.86831 11039 ft 247 kts 317°
2026-04-20 13:23 37.11182 28.85398 11049 ft 249 kts 320°
2026-04-20 13:23 37.12487 28.83959 11046 ft 251 kts 319°
2026-04-20 13:23 37.13790 28.82504 11045 ft 251 kts 319°
2026-04-20 13:23 37.15094 28.81056 11056 ft 249 kts 319°
2026-04-20 13:24 37.16388 28.79613 11057 ft 250 kts 319°
2026-04-20 13:24 37.17680 28.78162 11044 ft 249 kts 318°
2026-04-20 13:24 37.18948 28.76734 11034 ft 247 kts 331°
2026-04-20 13:24 37.20574 28.76063 11039 ft 249 kts 353°
2026-04-20 13:25 37.22301 28.76192 11045 ft 252 kts 12°
2026-04-20 13:25 37.23917 28.77062 11055 ft 256 kts 31°
2026-04-20 13:25 37.25175 28.78657 11050 ft 262 kts 53°
2026-04-20 13:25 37.25885 28.80778 11044 ft 268 kts 76°
2026-04-20 13:26 37.25902 28.83115 11050 ft 272 kts 99°
2026-04-20 13:26 37.25176 28.85331 11053 ft 278 kts 124°
2026-04-20 13:26 37.23847 28.87091 11057 ft 279 kts 139°
2026-04-20 13:26 37.22350 28.88665 11064 ft 282 kts 140°
2026-04-20 13:27 37.20844 28.90253 11049 ft 280 kts 139°
2026-04-20 13:27 37.19300 28.91930 11020 ft 313 kts 138°
2026-04-20 13:27 37.17706 28.93709 10828 ft 305 kts 137°
2026-04-20 13:27 37.16148 28.95449 10574 ft 295 kts 137°
2026-04-20 13:28 37.14633 28.97137 10314 ft 285 kts 137°
2026-04-20 13:28 37.13184 28.98752 10129 ft 271 kts 137°
2026-04-20 13:28 37.11818 29.00281 9960 ft 256 kts 136°
2026-04-20 13:28 37.10531 29.01729 9803 ft 242 kts 135°
2026-04-20 13:29 37.09287 29.03127 9650 ft 238 kts 136°
2026-04-20 13:29 37.08046 29.04500 9520 ft 239 kts 140°
2026-04-20 13:29 37.06576 29.05425 9371 ft 238 kts 172°
2026-04-20 13:29 37.04967 29.05173 9245 ft 235 kts 209°
2026-04-20 13:30 37.03697 29.03967 9126 ft 233 kts 229°
2026-04-20 13:30 37.02577 29.02500 8999 ft 233 kts 230°
2026-04-20 13:30 37.01456 29.01041 8867 ft 232 kts 229°
2026-04-20 13:30 37.00319 28.99615 8746 ft 231 kts 228°
2026-04-20 13:31 36.99168 28.98208 8597 ft 229 kts 227°
2026-04-20 13:31 36.98057 28.96867 8453 ft 213 kts 226°
2026-04-20 13:31 36.97041 28.95645 8298 ft 193 kts 226°
2026-04-20 13:31 36.96100 28.94512 8047 ft 183 kts 227°
2026-04-20 13:32 36.95194 28.93424 7682 ft 179 kts 227°
2026-04-20 13:32 36.94298 28.92358 7292 ft 178 kts 227°
2026-04-20 13:32 36.93433 28.91269 6912 ft 176 kts 227°
2026-04-20 13:32 36.92611 28.90211 6546 ft 164 kts 231°
2026-04-20 13:33 36.91815 28.89211 6191 ft 158 kts 228°
2026-04-20 13:33 36.91092 28.88190 5786 ft 156 kts 235°
2026-04-20 13:33 36.90399 28.87154 5362 ft 154 kts 230°
2026-04-20 13:33 36.89601 28.86283 4909 ft 156 kts 220°
2026-04-20 13:34 36.88671 28.85590 4452 ft 156 kts 210°
2026-04-20 13:34 36.87668 28.85040 4293 ft 156 kts 204°
2026-04-20 13:34 36.86650 28.84589 4290 ft 155 kts 199°
2026-04-20 13:34 36.85604 28.84176 4045 ft 156 kts 199°
2026-04-20 13:35 36.84571 28.83794 3732 ft 155 kts 197°
2026-04-20 13:35 36.83530 28.83429 3440 ft 157 kts 198°
2026-04-20 13:35 36.82479 28.83068 3146 ft 155 kts 198°
2026-04-20 13:35 36.81458 28.82718 2852 ft 146 kts 197°
2026-04-20 13:36 36.80498 28.82389 2579 ft 138 kts 197°
2026-04-20 13:36 36.79597 28.82080 2360 ft 130 kts 196°
2026-04-20 13:36 36.78746 28.81788 2153 ft 127 kts 195°
2026-04-20 13:36 36.77881 28.81489 1826 ft 134 kts 201°
2026-04-20 13:37 36.76969 28.81177 1508 ft 136 kts 202°
2026-04-20 13:37 36.76054 28.80865 1205 ft 136 kts 203°
2026-04-20 13:37 36.75149 28.80558 931 ft 130 kts 201°
2026-04-20 13:37 36.74319 28.80272 665 ft 121 kts 200°
2026-04-20 13:38 36.73508 28.80007 363 ft 121 kts 198°
2026-04-20 13:38 36.72696 28.79726 103 ft 122 kts 198°
2026-04-20 13:38 36.71890 28.79450 21 ft 115 kts 197°
2026-04-20 13:38 36.71310 28.79249 19 ft 45 kts 195°
2026-04-20 13:39 36.71129 28.79189 18 ft 25 kts 195°
2026-04-20 13:39 36.70950 28.79129 18 ft 28 kts 195°
2026-04-20 13:39 36.70798 28.79077 18 ft 19 kts 195°
2026-04-20 13:39 36.70678 28.78993 18 ft 21 kts 220°
2026-04-20 13:40 36.70605 28.78912 18 ft 7 kts 224°
2026-04-20 13:40 36.70600 28.78905 18 ft 2 kts 224°
2026-04-20 13:40 36.70582 28.78883 18 ft 5 kts 224°
2026-04-20 13:40 36.70571 28.78836 18 ft 7 kts 284°
2026-04-20 13:41 36.70616 28.78801 18 ft 10 kts
2026-04-20 13:41 36.70689 28.78825 18 ft 12 kts 15°
2026-04-20 13:41 36.70775 28.78854 18 ft 14 kts 15°
2026-04-20 13:41 36.70877 28.78888 18 ft 16 kts 15°
2026-04-20 13:42 36.70992 28.78927 18 ft 18 kts 15°
2026-04-20 13:42 36.71257 28.79019 18 ft 21 kts 16°
2026-04-20 13:42 36.71407 28.79070 18 ft 23 kts 15°
2026-04-20 13:43 36.71567 28.79124 18 ft 25 kts 15°
2026-04-20 13:43 36.71739 28.79181 18 ft 26 kts 15°
2026-04-20 13:43 36.71920 28.79243 18 ft 28 kts 15°
2026-04-20 13:43 36.72106 28.79307 17 ft 21 kts 15°
2026-04-20 13:44 36.72206 28.79342 17 ft 10 kts 16°
2026-04-20 13:44 36.72264 28.79341 18 ft 10 kts 323°
2026-04-20 13:44 36.72291 28.79253 17 ft 12 kts 284°
2026-04-20 13:44 36.72306 28.79175 17 ft 9 kts 277°
2026-04-20 13:45 36.72319 28.79092 18 ft 11 kts 287°
2026-04-20 13:45 36.72322 28.79078 17 ft 1 kts 285°
2026-04-20 13:45 36.72324 28.79068 17 ft 0 kts 285°